| time (UTC) | temp F | wind direction | speed MPH | gust MPH | rain 1hr in | rain 24hr in | rain mn in | humidity % | barometer mb |
| 20260901023048 | 67 | 251 | 0.0 | 0.0 | 0.07 | 0.31 | 0.07 | 100 | 1019.5 |
| 20260901021549 | 67 | 251 | 0.0 | 0.0 | 0.00 | 0.24 | 0.00 | 100 | 1019.8 |
| 20260901020057 | 67 | 251 | 0.0 | 0.0 | 0.00 | 0.24 | 0.00 | 100 | 1019.8 |
| 20260901014545 | 67 | 251 | 0.0 | 0.0 | 0.00 | 0.24 | 0.00 | 100 | 1019.8 |
| 20260901013045 | 67 | 251 | 0.0 | 0.0 | 0.00 | 0.24 | 0.00 | 100 | 1019.8 |
| 20260901011547 | 67 | 251 | 0.0 | 0.0 | 0.00 | 0.24 | 0.00 | 100 | 1019.8 |
| 20260901010046 | 67 | 251 | 0.0 | 0.0 | 0.00 | 0.24 | 0.00 | 100 | 1019.8 |
| 20260901004555 | 67 | 251 | 0.0 | 1.0 | 0.00 | 0.24 | 0.00 | 100 | 1019.5 |
| 20260901003045 | 67 | 247 | 0.0 | 0.0 | 0.00 | 0.24 | 0.00 | 100 | 1019.4 |
| 20260901001542 | 67 | 246 | 0.0 | 0.0 | 0.00 | 0.24 | 0.00 | 100 | 1019.3 |
| 20260831234539 | 67 | 261 | 0.0 | 0.0 | 0.00 | 0.24 | 0.00 | 100 | 1019.7 |
| 20260831233039 | 67 | 261 | 0.0 | 0.0 | 0.00 | 0.24 | 0.00 | 100 | 1019.7 |
| 20260831231548 | 67 | 261 | 0.0 | 0.0 | 0.00 | 0.24 | 0.00 | 100 | 1019.8 |
| 20260831230039 | 67 | 261 | 0.0 | 0.0 | 0.00 | 0.24 | 0.00 | 100 | 1020.0 |
| 20260831224533 | 68 | 261 | 0.0 | 0.0 | 0.00 | 0.24 | 0.00 | 100 | 1020.0 |
| 20260831221529 | 67 | 261 | 0.0 | 0.0 | 0.05 | 0.24 | 0.22 | 100 | 1020.2 |
| 20260831220028 | 67 | 261 | 0.0 | 0.0 | 0.11 | 0.24 | 0.22 | 100 | 1020.5 |
| 20260831214527 | 67 | 259 | 0.0 | 1.0 | 0.11 | 0.27 | 0.22 | 100 | 1020.7 |
| 20260831213030 | 67 | 213 | 0.0 | 0.0 | 0.09 | 0.25 | 0.20 | 100 | 1020.6 |
| 20260831211527 | 67 | 214 | 0.0 | 3.0 | 0.05 | 0.21 | 0.16 | 100 | 1020.6 |
| 20260831210028 | 68 | 157 | 0.0 | 2.0 | 0.00 | 0.16 | 0.11 | 100 | 1020.6 |
| 20260831204527 | 67 | 154 | 0.0 | 1.0 | 0.00 | 0.16 | 0.11 | 100 | 1020.7 |
| 20260831203023 | 67 | 143 | 0.0 | 2.0 | 0.00 | 0.16 | 0.11 | 100 | 1020.8 |
| 20260831201526 | 67 | 130 | 0.0 | 2.0 | 0.00 | 0.16 | 0.11 | 100 | 1020.8 |
| 20260831200029 | 67 | 159 | 0.0 | 3.0 | 0.00 | 0.16 | 0.11 | 100 | 1020.8 |
| 20260831194524 | 67 | 143 | 0.0 | 4.0 | 0.00 | 0.16 | 0.11 | 100 | 1021.0 |
| 20260831193020 | 67 | 155 | 1.0 | 4.0 | 0.00 | 0.16 | 0.11 | 100 | 1021.0 |
| 20260831191521 | 66 | 153 | 0.0 | 2.0 | 0.00 | 0.16 | 0.11 | 100 | 1021.3 |
| 20260831190021 | 66 | 160 | 0.0 | 1.0 | 0.01 | 0.16 | 0.11 | 100 | 1021.5 |
| 20260831184514 | 66 | 176 | 0.0 | 1.0 | 0.04 | 0.16 | 0.11 | 100 | 1021.8 |
| 20260831183013 | 66 | 122 | 0.0 | 2.0 | 0.06 | 0.16 | 0.11 | 100 | 1021.9 |
| 20260831181513 | 65 | 149 | 0.0 | 2.0 | 0.07 | 0.16 | 0.11 | 100 | 1022.0 |
| 20260831180012 | 65 | 147 | 0.0 | 1.0 | 0.07 | 0.15 | 0.10 | 100 | 1022.1 |
| 20260831174522 | 65 | 147 | 0.0 | 1.0 | 0.04 | 0.12 | 0.07 | 100 | 1022.2 |
| 20260831173011 | 66 | 147 | 0.0 | 2.0 | 0.02 | 0.10 | 0.05 | 100 | 1022.4 |
| 20260831171513 | 66 | 147 | 0.0 | 1.0 | 0.01 | 0.09 | 0.04 | 100 | 1022.5 |
| 20260831170011 | 66 | 146 | 0.0 | 2.0 | 0.00 | 0.08 | 0.03 | 100 | 1022.4 |
| 20260831164513 | 66 | 138 | 0.0 | 0.0 | 0.00 | 0.08 | 0.03 | 100 | 1022.4 |
| 20260831163008 | 66 | 138 | 0.0 | 1.0 | 0.00 | 0.08 | 0.03 | 100 | 1022.4 |
| 20260831161507 | 66 | 137 | 0.0 | 1.0 | 0.00 | 0.08 | 0.03 | 100 | 1022.3 |
| 20260831160008 | 66 | 177 | 0.0 | 6.0 | 0.00 | 0.08 | 0.03 | 100 | 1022.5 |
| 20260831154511 | 66 | 150 | 0.0 | 3.0 | 0.00 | 0.08 | 0.03 | 100 | 1022.5 |
| 20260831153011 | 67 | 140 | 0.0 | 2.0 | 0.00 | 0.08 | 0.03 | 100 | 1022.4 |
| 20260831151506 | 67 | 156 | 0.0 | 2.0 | 0.00 | 0.08 | 0.03 | 100 | 1022.4 |
| 20260831150006 | 67 | 120 | 0.0 | 1.0 | 0.00 | 0.08 | 0.03 | 100 | 1022.5 |
| 20260831144505 | 67 | 132 | 0.0 | 2.0 | 0.00 | 0.08 | 0.03 | 100 | 1022.4 |
| 20260831143008 | 67 | 134 | 0.0 | 3.0 | 0.00 | 0.08 | 0.03 | 100 | 1022.4 |
| 20260831141514 | 67 | 143 | 0.0 | 3.0 | 0.00 | 0.08 | 0.03 | 100 | 1022.5 |
| 20260831140006 | 67 | 132 | 1.0 | 4.0 | 0.00 | 0.08 | 0.03 | 100 | 1022.4 |
| 20260831134502 | 67 | 157 | 0.0 | 0.0 | 0.00 | 0.08 | 0.03 | 100 | 1022.5 |
| 20260831133058 | 65 | 173 | 1.0 | 6.0 | 0.00 | 0.08 | 0.03 | 100 | 1022.4 |
| 20260831131601 | 65 | 96 | 0.0 | 2.0 | 0.00 | 0.08 | 0.03 | 100 | 1022.5 |
| 20260831130058 | 64 | 119 | 0.0 | 1.0 | 0.00 | 0.08 | 0.03 | 100 | 1022.5 |
| 20260831124610 | 64 | 171 | 0.0 | 0.0 | 0.00 | 0.08 | 0.03 | 100 | 1022.6 |
| 20260831123057 | 64 | 171 | 0.0 | 0.0 | 0.00 | 0.08 | 0.03 | 100 | 1022.5 |
| 20260831121555 | 63 | 176 | 0.0 | 0.0 | 0.00 | 0.08 | 0.03 | 100 | 1022.6 |
| 20260831120054 | 63 | 176 | 0.0 | 0.0 | 0.00 | 0.08 | 0.03 | 100 | 1022.6 |
| 20260831114554 | 63 | 37 | 0.0 | 0.0 | 0.00 | 0.08 | 0.03 | 100 | 1022.6 |
| 20260831113055 | 63 | 37 | 0.0 | 0.0 | 0.00 | 0.08 | 0.03 | 100 | 1022.6 |
| 20260831111555 | 63 | 37 | 0.0 | 0.0 | 0.00 | 0.08 | 0.03 | 100 | 1022.7 |
| 20260831110057 | 63 | 37 | 0.0 | 0.0 | 0.00 | 0.08 | 0.03 | 100 | 1022.4 |
| 20260831104556 | 63 | 37 | 0.0 | 0.0 | 0.00 | 0.08 | 0.03 | 100 | 1022.2 |
| 20260831103055 | 63 | 37 | 0.0 | 0.0 | 0.00 | 0.08 | 0.03 | 100 | 1022.1 |
| 20260831101612 | 63 | 37 | 0.0 | 0.0 | 0.00 | 0.08 | 0.03 | 100 | 1022.0 |
| 20260831100059 | 63 | 37 | 0.0 | 0.0 | 0.00 | 0.08 | 0.03 | 100 | 1021.9 |
| 20260831094550 | 63 | 37 | 0.0 | 0.0 | 0.00 | 0.08 | 0.03 | 100 | 1021.9 |
| 20260831093051 | 63 | 37 | 0.0 | 0.0 | 0.00 | 0.08 | 0.03 | 100 | 1022.1 |
| 20260831091549 | 62 | 36 | 0.0 | 2.0 | 0.00 | 0.08 | 0.03 | 100 | 1022.2 |
| 20260831084549 | 62 | 132 | 0.0 | 0.0 | 0.00 | 0.08 | 0.03 | 100 | 1022.0 |
| 20260831083046 | 63 | 132 | 0.0 | 0.0 | 0.00 | 0.08 | 0.03 | 100 | 1021.8 |
| 20260831081548 | 62 | 130 | 0.0 | 2.0 | 0.00 | 0.08 | 0.03 | 100 | 1021.9 |
| 20260831080045 | 62 | 130 | 0.0 | 0.0 | 0.00 | 0.08 | 0.03 | 100 | 1021.9 |
| 20260831074545 | 63 | 130 | 0.0 | 0.0 | 0.00 | 0.08 | 0.03 | 100 | 1021.8 |
| 20260831073045 | 63 | 129 | 0.0 | 1.0 | 0.00 | 0.08 | 0.03 | 100 | 1021.9 |
| 20260831071543 | 62 | 129 | 0.0 | 0.0 | 0.00 | 0.08 | 0.03 | 100 | 1021.8 |
| 20260831070042 | 62 | 129 | 0.0 | 0.0 | 0.00 | 0.08 | 0.03 | 100 | 1022.1 |
| 20260831064540 | 63 | 129 | 0.0 | 0.0 | 0.00 | 0.08 | 0.03 | 100 | 1022.2 |
| 20260831063039 | 63 | 129 | 0.0 | 0.0 | 0.01 | 0.08 | 0.03 | 100 | 1022.2 |
| 20260831061549 | 63 | 129 | 0.0 | 0.0 | 0.02 | 0.08 | 0.03 | 100 | 1022.3 |
| 20260831060037 | 63 | 129 | 0.0 | 0.0 | 0.02 | 0.08 | 0.03 | 100 | 1022.5 |
| 20260831054537 | 63 | 129 | 0.0 | 0.0 | 0.02 | 0.08 | 0.03 | 100 | 1022.6 |
| 20260831053037 | 63 | 129 | 0.0 | 0.0 | 0.01 | 0.07 | 0.02 | 100 | 1022.5 |
| 20260831051538 | 64 | 129 | 0.0 | 0.0 | 0.00 | 0.06 | 0.01 | 100 | 1022.6 |
| 20260831050033 | 64 | 129 | 0.0 | 0.0 | 0.01 | 0.06 | 0.01 | 100 | 1022.4 |
| 20260831044532 | 64 | 129 | 0.0 | 0.0 | 0.02 | 0.06 | 0.01 | 100 | 1022.5 |
| 20260831043030 | 64 | 129 | 0.0 | 0.0 | 0.03 | 0.06 | 0.01 | 100 | 1022.4 |
| 20260831041531 | 65 | 129 | 0.0 | 0.0 | 0.03 | 0.06 | 0.01 | 100 | 1022.6 |
| 20260831040029 | 65 | 129 | 0.0 | 0.0 | 0.02 | 0.05 | 0.00 | 100 | 1022.6 |
| 20260831034526 | 65 | 129 | 0.0 | 0.0 | 0.01 | 0.04 | 0.04 | 100 | 1022.7 |
| 20260831033032 | 65 | 129 | 0.0 | 0.0 | 0.00 | 0.03 | 0.03 | 100 | 1022.5 |
| 20260831031534 | 65 | 129 | 0.0 | 0.0 | 0.00 | 0.03 | 0.03 | 100 | 1022.4 |
| 20260831030025 | 65 | 129 | 0.0 | 0.0 | 0.00 | 0.03 | 0.03 | 100 | 1022.6 |
| 20260831024545 | 65 | 129 | 0.0 | 0.0 | 0.00 | 0.03 | 0.03 | 100 | 1022.6 |